Flag for U.S.A. Weather past 2 weeks in Huntington Beach, California, U.S.A.

Now
72 °F

Overcast.


Feels Like: 75 °F
Forecast: 67 / 76 °F
Wind: 3 mph from Northeast

Location: John Wayne Airport-Orange County Airport

Current Time: Sep 21, 2014 at 3:15:15 AM

Latest Report: Sep 21, 2014 at 2:53 AM


Visibility: 10 mi

Pressure: 29.93 "Hg

Humidity: 66%

Dew point: 60 °F

Location of Huntington BeachLocation

Historic Weather in Huntington Beach — Graph

°F

Huntington Beach temperature yesterday

Maximum temperature yesterday: 80 °F (at 2:53 PM)
Minimum temperature yesterday: 71 °F (at 12:53 AM)
Average temperature yesterday: 74 °F

Past Weeks' High & Low Weather Summary

 TemperatureHumidityPressure
High99 °F (Sep 16, 4:53 PM)81% (Sep 12, 4:53 AM)29.94 "Hg (Sep 12, 4:53 AM)
Low69 °F (Sep 10, 3:53 AM)24% (Sep 16, 3:53 PM)29.67 "Hg (Sep 14, 4:53 PM)
Average80 °F58%29.81 "Hg
* Reported Sep 6 1:53 AM — Sep 21 1:53 AM, Huntington Beach, Weather by CustomWeather, © 2014

Note: Actual official high and low records may vary slightly from our data, if they occured in-between our weather recording intervals... More about our weather records

Advertising

Huntington Beach weather history for previous 24 hours

 ConditionsComfort  
Time TempWeatherWind HumidityBarometerVisibility
1:53 AM
Sep 21
73 °FOvercast.No wind64%29.93 "Hg10 mi
12:53 AM72 °FOvercast.No wind66%29.94 "Hg10 mi
11:53 PM
Sep 20
71 °FOvercast.No wind71%29.94 "Hg10 mi
10:53 PM71 °FPassing clouds.No wind71%29.93 "Hg10 mi
9:53 PM72 °FClear.3 mph68%29.92 "Hg10 mi
8:53 PM73 °FClear.3 mph64%29.91 "Hg10 mi
7:53 PM73 °FClear.3 mph66%29.90 "Hg10 mi
6:53 PM75 °FPassing clouds.6 mph64%29.89 "Hg10 mi
5:53 PM76 °FScattered clouds.7 mph60%29.88 "Hg10 mi
4:53 PM78 °FScattered clouds.7 mph56%29.88 "Hg10 mi
3:53 PM79 °FScattered clouds.8 mph52%29.88 "Hg10 mi
2:53 PM80 °FScattered clouds.7 mph49%29.88 "Hg10 mi
1:53 PM78 °FMore clouds than sun.5 mph54%29.90 "Hg10 mi
12:53 PM76 °FMostly cloudy.6 mph58%29.93 "Hg10 mi
11:53 AM76 °FMore clouds than sun.6 mph60%29.94 "Hg10 mi
10:53 AM75 °FMostly cloudy.7 mph64%29.94 "Hg10 mi
5:53 AM72 °FOvercast.3 mph71%29.90 "Hg10 mi
4:53 AM71 °FOvercast.5 mph76%29.89 "Hg10 mi
3:53 AM71 °FMostly cloudy.No wind76%29.89 "Hg10 mi
Weather by CustomWeather, © 2014

See weather overviewHow to use our weather pages